TimeEEST,TemperatureF,Dew PointF,Humidity,Sea Level PressureIn,VisibilityMPH,Wind Direction,Wind SpeedMPH,Gust SpeedMPH,PrecipitationIn,Events,Conditions,WindDirDegrees,DateUTC
12:20 AM,59.0,46.4,63,29.98,-9999.0,ENE,3.5,-,N/A,,Clear,70,2013-07-23 21:20:00
12:50 AM,59.0,48.2,67,29.98,-9999.0,NE,3.5,-,N/A,,Clear,40,2013-07-23 21:50:00
1:20 AM,57.2,48.2,72,29.98,-9999.0,North,5.8,-,N/A,,Clear,360,2013-07-23 22:20:00
1:50 AM,57.2,46.4,67,29.98,-9999.0,North,6.9,-,N/A,,Clear,10,2013-07-23 22:50:00
2:20 AM,55.4,46.4,72,30.01,-9999.0,NNE,5.8,-,N/A,,Clear,20,2013-07-23 23:20:00
2:50 AM,53.6,46.4,77,30.01,-9999.0,North,6.9,-,N/A,,Clear,10,2013-07-23 23:50:00
3:00 AM,54,47,69,,12,North,6.9,,,,,10,2013-07-24 00:00:00
3:20 AM,50.0,44.6,82,30.01,-9999.0,NE,4.6,-,N/A,,Clear,40,2013-07-24 00:20:00
3:50 AM,50.0,46.4,87,30.01,-9999.0,ENE,3.5,-,N/A,,Clear,60,2013-07-24 00:50:00
4:20 AM,50.0,44.6,82,29.98,-9999.0,NE,2.3,-,N/A,,Clear,40,2013-07-24 01:20:00
4:50 AM,50.0,44.6,82,30.01,-9999.0,NNE,1.2,-,N/A,,Clear,30,2013-07-24 01:50:00
5:20 AM,50.0,46.4,87,30.01,-9999.0,NNE,4.6,-,N/A,,Clear,20,2013-07-24 02:20:00
5:50 AM,50.0,44.6,82,30.01,-9999.0,NNE,4.6,-,N/A,,Clear,20,2013-07-24 02:50:00
6:20 AM,51.8,46.4,82,30.01,-9999.0,NNE,4.6,-,N/A,,Clear,20,2013-07-24 03:20:00
6:50 AM,53.6,46.4,77,30.01,-9999.0,North,4.6,-,N/A,,Clear,10,2013-07-24 03:50:00
7:20 AM,55.4,48.2,77,30.01,-9999.0,NNE,4.6,-,N/A,,Clear,20,2013-07-24 04:20:00
7:50 AM,59.0,48.2,67,30.01,-9999.0,Variable,1.2,-,N/A,,Clear,0,2013-07-24 04:50:00
8:20 AM,62.6,50.0,63,30.01,-9999.0,Variable,2.3,-,N/A,,Clear,0,2013-07-24 05:20:00
8:50 AM,64.4,48.2,56,30.01,-9999.0,NE,4.6,-,N/A,,Clear,50,2013-07-24 05:50:00
9:00 AM,64,48,45,,12,NE,4.6,,,,,50,2013-07-24 06:00:00
9:20 AM,66.2,48.2,52,30.01,-9999.0,Variable,2.3,-,N/A,,Clear,0,2013-07-24 06:20:00
9:50 AM,68.0,46.4,46,30.01,-9999.0,Variable,1.2,-,N/A,,Clear,0,2013-07-24 06:50:00
10:20 AM,68.0,46.4,46,30.01,-9999.0,Variable,2.3,-,N/A,,Clear,0,2013-07-24 07:20:00
10:50 AM,69.8,44.6,40,30.01,-9999.0,Variable,1.2,-,N/A,,Clear,0,2013-07-24 07:50:00
11:20 AM,71.6,46.4,41,30.01,-9999.0,Variable,2.3,-,N/A,,Clear,0,2013-07-24 08:20:00
11:50 AM,73.4,46.4,38,29.98,-9999.0,Variable,2.3,-,N/A,,Clear,0,2013-07-24 08:50:00
12:20 PM,75.2,44.6,34,29.98,6.2,Variable,4.6,-,N/A,,Partly Cloudy,0,2013-07-24 09:20:00
12:50 PM,77.0,44.6,32,29.98,6.2,Variable,3.5,-,N/A,,Partly Cloudy,0,2013-07-24 09:50:00
1:20 PM,77.0,44.6,32,29.98,6.2,SE,2.3,-,N/A,,Partly Cloudy,140,2013-07-24 10:20:00
1:50 PM,80.6,44.6,28,29.95,6.2,Variable,4.6,-,N/A,,Partly Cloudy,0,2013-07-24 10:50:00
2:20 PM,80.6,42.8,26,29.95,6.2,South,4.6,-,N/A,,Partly Cloudy,170,2013-07-24 11:20:00
2:50 PM,82.4,41.0,23,29.95,6.2,Variable,5.8,-,N/A,,Partly Cloudy,0,2013-07-24 11:50:00
3:00 PM,82,40,13,,12,South,5.8,,,,Scattered Clouds,170,2013-07-24 12:00:00
3:20 PM,82.4,39.2,21,29.92,6.2,Variable,4.6,-,N/A,,Partly Cloudy,0,2013-07-24 12:20:00
3:50 PM,82.4,39.2,21,29.92,6.2,Variable,2.3,-,N/A,,Partly Cloudy,0,2013-07-24 12:50:00
4:20 PM,84.2,37.4,19,29.92,6.2,Variable,4.6,-,N/A,,Partly Cloudy,0,2013-07-24 13:20:00
4:50 PM,84.2,33.8,16,29.92,6.2,West,2.3,-,N/A,,Partly Cloudy,280,2013-07-24 13:50:00
5:20 PM,84.2,33.8,16,29.92,6.2,NW,6.9,-,N/A,,Partly Cloudy,310,2013-07-24 14:20:00
5:50 PM,82.4,35.6,19,29.89,6.2,North,9.2,-,N/A,,Partly Cloudy,350,2013-07-24 14:50:00
6:20 PM,82.4,35.6,19,29.92,-9999.0,North,11.5,-,N/A,,Clear,350,2013-07-24 15:20:00
6:50 PM,80.6,32.0,17,29.92,-9999.0,NNW,13.8,-,N/A,,Clear,340,2013-07-24 15:50:00
7:20 PM,78.8,32.0,18,29.92,-9999.0,NNW,11.5,-,N/A,,Clear,340,2013-07-24 16:20:00
7:50 PM,77.0,32.0,19,29.92,-9999.0,North,9.2,-,N/A,,Clear,350,2013-07-24 16:50:00
8:20 PM,75.2,32.0,21,29.95,-9999.0,North,10.4,-,N/A,,Clear,350,2013-07-24 17:20:00
8:50 PM,71.6,33.8,25,29.95,-9999.0,NNE,8.1,-,N/A,,Clear,20,2013-07-24 17:50:00
9:00 PM,71,33,15,,12,NNE,8.1,,,,,20,2013-07-24 18:00:00
9:20 PM,69.8,33.8,27,29.98,-9999.0,NE,9.2,-,N/A,,Clear,50,2013-07-24 18:20:00
9:50 PM,69.8,33.8,27,29.98,-9999.0,East,4.6,-,N/A,,Clear,80,2013-07-24 18:50:00
10:20 PM,66.2,35.6,32,29.98,-9999.0,NE,6.9,-,N/A,,Clear,50,2013-07-24 19:20:00
10:50 PM,64.4,39.2,40,30.01,-9999.0,NE,4.6,-,N/A,,Clear,50,2013-07-24 19:50:00
11:20 PM,66.2,42.8,43,30.01,-9999.0,NE,6.9,-,N/A,,Clear,40,2013-07-24 20:20:00
11:50 PM,62.6,44.6,52,30.01,-9999.0,ENE,4.6,-,N/A,,Clear,60,2013-07-24 20:50:00